Caribou, ME

1:07 AM EDT on June 23, 2017 (GMT -0400)
Caribou Municipal

Weather History for KCAR - July, 2014

Change the Weather History Date:

Saturday, July 5, 2014

  Actual Average Record
Temperature  
Mean Temperature 55 °F 65 °F  
Max Temperature 59 °F 75 °F 92 °F (1983)
Min Temperature 50 °F 55 °F 40 °F (1972)
Degree Days  
Heating Degree Days 10 2  
Month to date heating degree days 10 14  
Since 1 June heating degree days 99 179  
Since 1 July heating degree days 10 14  
Cooling Degree Days 0 2  
Month to date cooling degree days 43 10  
Year to date cooling degree days 82 49  
Since 1 June cooling degree days 79 44  
Growing Degree Days 2 (Base 50)    
Moisture  
Dew Point 50 °F    
Average Humidity 85    
Maximum Humidity 93    
Minimum Humidity 77    
Precipitation  
Precipitation 2.34 in 0.13 in 2.34 in (2014)
Month to date precipitation 3.94 0.68  
Year to date precipitation 23.75 17.58  
Snow  
Snow 0.00 in 0.00 in 0.00 in (2002)
Month to date snowfall 0.0 0.0  
Since 1 June snowfall 0.0 0.0  
Since 1 July snowfall 0.0 0.0  
Snow Depth 0.00 in    
Sea Level Pressure  
Sea Level Pressure 29.67 in    
Wind  
Wind Speed 15 mph (NNW)    
Max Wind Speed 36 mph    
Max Gust Speed 52 mph    
Visibility 6 miles    
Events Rain    
T = Trace of Precipitation, MM = Missing Value Source: NWS Daily Summary

Daily Weather History Graph

Daily Weather History Graph

Search for Another Location

Airport or City:

Trip Planner

Search our weather history database for the weather conditions in past years. The results will help you decide how hot, cold, wet, or windy it might be!

Date:

Astronomy

Jul. 05, 2014 Rise Set
Actual Time 4:44 AM EDT 8:28 PM EDT
Civil Twilight 4:05 AM EDT 9:07 PM EDT
Nautical Twilight 3:12 AM EDT 10:00 PM EDT
Astronomical Twilight 1:57 AM EDT 11:14 PM EDT
Moon 1:06 PM EDT (7/5) No Moon Set
Length of Visible Light 17h 02m
Length of Day
15h 44m
First Quarter, 52% of the Moon is Illuminated
Jul 5
First Quarter
Jul 12
Full
Jul 18
Last Quarter
Jul 26
New
Aug 3
First Quarter

Hourly Weather History & Observations

Time (EDT) Temp. Dew Point Humidity Pressure Visibility Wind Dir Wind Speed Gust Speed Precip Events Conditions
12:54 AM 59.0 °F 57.0 °F 93% 29.93 in 7.0 mi North 8.1 mph - 0.09 in Rain Light Rain
1:54 AM 57.9 °F 55.9 °F 93% 29.92 in 8.0 mi NNE 9.2 mph - 0.05 in Rain Light Rain
2:54 AM 57.0 °F 55.0 °F 93% 29.90 in 7.0 mi North 11.5 mph - 0.05 in Rain Light Rain
3:54 AM 55.9 °F 54.0 °F 93% 29.83 in 6.0 mi North 15.0 mph 21.9 mph 0.15 in Rain Rain
4:54 AM 55.9 °F 53.1 °F 90% 29.81 in 5.0 mi North 16.1 mph 27.6 mph 0.10 in Rain Rain
5:54 AM 55.0 °F 53.1 °F 93% 29.78 in 4.0 mi North 17.3 mph - 0.14 in Rain Rain
6:54 AM 55.0 °F 53.1 °F 93% 29.73 in 6.0 mi North 15.0 mph 23.0 mph 0.11 in Rain Light Rain
7:54 AM 55.0 °F 52.0 °F 89% 29.71 in 5.0 mi North 18.4 mph 28.8 mph 0.08 in Rain Light Rain
8:54 AM 54.0 °F 51.1 °F 90% 29.68 in 6.0 mi North 16.1 mph 25.3 mph 0.07 in Rain Light Rain
9:54 AM 53.1 °F 50.0 °F 89% 29.60 in 5.0 mi North 17.3 mph 35.7 mph 0.06 in Rain Rain
10:54 AM 53.1 °F 51.1 °F 93% 29.57 in 4.0 mi NNW 18.4 mph 27.6 mph 0.09 in Rain Rain
11:38 AM 53.1 °F 51.1 °F 93% 29.55 in 2.5 mi NNW 16.1 mph 28.8 mph 0.11 in Rain Heavy Rain
11:54 AM 53.1 °F 51.1 °F 93% 29.57 in 2.0 mi NNW 16.1 mph 31.1 mph 0.18 in Rain Heavy Rain
12:02 PM 53.1 °F 51.1 °F 93% 29.56 in 1.8 mi NNW 17.3 mph 27.6 mph 0.06 in Rain Heavy Rain
12:26 PM 53.1 °F 50.0 °F 89% 29.56 in 2.5 mi NW 19.6 mph 29.9 mph 0.20 in Rain Rain
12:54 PM 53.1 °F 50.0 °F 89% 29.56 in 2.5 mi NNW 24.2 mph 33.4 mph 0.33 in Rain Rain
1:01 PM 53.1 °F 50.0 °F 89% 29.54 in 2.5 mi NW 23.0 mph 38.0 mph 0.02 in Rain Rain
1:42 PM 51.1 °F 46.9 °F 86% 29.53 in 4.0 mi NNW 27.6 mph 42.6 mph 0.17 in Rain Light Rain
1:54 PM 51.1 °F 46.9 °F 86% 29.55 in 4.0 mi NNW 26.5 mph 40.3 mph 0.19 in Rain Rain
2:54 PM 50.0 °F 45.0 °F 83% 29.57 in 2.5 mi NNW 28.8 mph 46.0 mph 0.12 in Rain Heavy Rain
3:21 PM 51.1 °F 46.0 °F 83% 29.57 in 5.0 mi NNW 24.2 mph 40.3 mph 0.14 in Rain Rain
4:54 PM 51.1 °F 46.9 °F 86% 29.63 in 4.0 mi NNW 18.4 mph 29.9 mph 0.14 in Rain Rain
5:54 PM 50.0 °F 46.9 °F 89% 29.64 in 5.0 mi NW 15.0 mph 25.3 mph 0.10 in Rain Light Rain
6:54 PM 51.1 °F 46.9 °F 86% 29.66 in 7.0 mi NW 10.4 mph - 0.12 in Rain Light Rain
7:54 PM 50.0 °F 48.0 °F 93% 29.66 in 10.0 mi WSW 3.5 mph - 0.04 in Rain Light Rain
8:54 PM 51.1 °F 46.9 °F 86% 29.67 in 10.0 mi West 4.6 mph - 0.00 in   Mostly Cloudy
9:54 PM 50.0 °F 46.0 °F 86% 29.68 in 10.0 mi West 5.8 mph - N/A   Clear
10:54 PM 51.1 °F 45.0 °F 80% 29.67 in 10.0 mi West 6.9 mph - N/A   Clear
11:54 PM 51.1 °F 44.1 °F 77% 29.66 in 10.0 mi West 6.9 mph - N/A   Clear